User: anonymous   Login
Location: Austin
(30.3000°N, 97.7500°W)
Time: 04:51:25
(UTC-05:00)
Language:

Okean O Rocket - Orbit

View from above orbital plane
View from above orbital plane
View from above satellite
View from above satellite

Ground track
Ground track

The orbit data is extracted from the following two-line orbital elements,

1 25861U 99039B   24282.85777841  .00003110  00000-0  41222-3 0  9996
2 25861  98.0754 329.6221 0016261 128.8882 231.3783 14.80519798360351
Epoch (UTC): 08 October 2024 20:35:12
Eccentricity: 0.0016261
inclination: 98.0754°
perigee height: 616 km
apogee height: 639 km
right ascension of ascending node: 329.6221°
argument of perigee: 128.8882°
revolutions per day: 14.80519798
mean anomaly at epoch: 231.3783°
orbit number at epoch: 36035

The dashed part of the orbit path shows where the satellite is in the earth's shadow,  

DLR